Location: Martz Observatory
(42.0083°N, 79.0667°W)
Time: 04:07:34
(UTC-04:00)

Cosmos 1633 Rocket - Pass Details

Date: 26 May 2018
Orbit: 606 x 625 km, 82.5° (Epoch: 21 August)

Event Time Altitude Azimuth Distance (km) Brightness Sun altitude
Rises 05:02:07 0° 172° (S) 2,851 6.2 -7.7°
Reaches altitude 10° 05:04:22 10° 166° (SSE) 1,954 5.4 -7.4°
Maximum altitude 05:08:30 46° 93° (E) 819 4.1 -6.8°
Drops below altitude 10° 05:12:41 10° 20° (NNE) 1,978 6.6 -6.1°
Sets 05:14:59 0° 15° (NNE) 2,890 7.4 -5.8°
